{"data":{"norad_id":69032,"epoch":"2026-05-24T07:41:02.481504Z","epoch_age_seconds":130897,"freshness":"FRESH","line1":"1 69032U 26101H   26144.32016761  .00148021  00000+0  10110-2 0  9993","line2":"2 69032  97.2845 359.0339 0016412 240.8664 119.0958 15.74194584  2882","mean_motion":15.74194584,"eccentricity":0.0016412,"inclination_deg":97.2845,"raan_deg":359.0339,"arg_perigee_deg":240.8664,"mean_anomaly_deg":119.0958,"bstar":0.001011,"rev_number":288,"period_min":91.475349657282,"perigee_km":335.88689310886,"apogee_km":357.96123354312,"semimajor_km":6725.061063326,"source":"CELESTRAK","updated_at":"2026-05-25T13:38:22.080688Z"}}